CST,Max TemperatureF,Mean TemperatureF,Min TemperatureF,Max Dew PointF,MeanDew PointF,Min DewpointF,Max Humidity, Mean Humidity, Min Humidity, Max Sea Level PressureIn, Mean Sea Level PressureIn, Min Sea Level PressureIn, Max VisibilityMiles, Mean VisibilityMiles, Min VisibilityMiles, Max Wind SpeedMPH, Mean Wind SpeedMPH, Max Gust SpeedMPH,PrecipitationIn, CloudCover, Events, WindDirDegrees
2013-3-1,73,56,39,45,37,30,93,57,22,30.37,30.09,29.63,7,6,2,17,7,,0.00,3,,239
2013-3-2,59,47,33,23,13,1,46,28,10,30.47,30.26,29.80,10,8,6,20,9,,0.00,6,,47
2013-3-3,66,42,19,14,2,-15,68,28,4,30.46,30.28,29.92,7,6,4,16,5,,0.00,0,,224
2013-3-4,69,46,24,18,6,-6,69,28,5,30.44,30.25,29.86,7,5,3,17,3,,0.00,1,,192
2013-3-5,73,48,24,25,9,-13,69,30,4,30.48,30.26,29.87,7,5,3,16,4,,0.00,0,,60
2013-3-6,71,52,32,28,21,14,75,38,11,30.49,30.26,29.75,7,6,2,17,5,,0.00,1,,151
2013-3-7,71,52,33,30,27,21,70,40,15,30.46,30.24,29.84,7,6,3,16,3,,0.00,2,,176
2013-3-8,71,54,37,34,30,27,75,44,20,30.47,30.26,29.68,8,6,2,12,3,,0.00,3,,237
2013-3-9,75,55,35,32,28,21,81,40,14,30.45,30.17,29.71,8,6,3,13,3,,0.00,1,,277
2013-3-10,73,55,37,36,31,23,75,44,15,30.33,30.10,29.66,7,7,6,16,3,,0.00,4,,249
2013-3-11,73,55,37,37,32,25,81,45,16,30.32,30.09,29.66,7,6,3,20,6,,0.00,3,,225
2013-3-12,73,56,39,34,30,27,75,42,18,30.40,30.13,29.73,7,7,6,26,7,,0.00,4,,266
2013-3-13,69,53,37,37,33,28,81,51,23,30.48,30.24,29.84,8,6,3,16,3,,0.00,5,Rain,310
2013-3-14,68,55,42,41,37,30,81,61,24,30.46,30.25,29.88,8,5,2,14,6,,0.25,6,Rain,279
2013-3-15,50,47,44,43,41,39,87,80,71,30.42,30.21,29.86,7,4,2,15,6,,0.55,7,Rain,163
2013-3-16,53,48,42,43,41,37,93,77,62,30.36,30.18,29.85,7,5,3,23,10,,0.25,7,Rain,158
2013-3-17,66,50,33,43,36,28,93,70,26,30.38,30.22,29.79,10,5,0,20,3,,0.00,6,Fog,184
2013-3-18,69,51,33,37,29,12,87,47,12,30.41,30.19,29.75,8,7,6,13,4,,0.00,2,,340
2013-3-19,75,55,35,37,28,3,87,44,6,30.40,30.18,29.74,7,6,3,15,2,,0.00,2,,173
2013-3-20,75,58,41,43,31,14,70,43,10,30.40,30.15,29.70,7,6,5,17,4,,0.00,4,Rain,124
2013-3-21,73,56,39,39,27,-2,87,42,5,30.36,30.11,29.67,7,6,3,17,5,,0.00,4,,258
2013-3-22,73,58,42,30,25,14,53,32,10,30.37,30.11,29.69,10,8,6,24,6,,0.00,3,,285
2013-3-23,71,54,37,34,26,19,75,37,14,30.38,30.15,29.76,10,8,3,22,6,,0.00,1,,284
2013-3-24,77,58,39,30,20,5,65,31,6,30.36,30.10,29.65,15,9,4,20,5,,0.00,0,,315
2013-3-25,75,57,39,27,18,1,53,27,6,30.35,30.09,29.67,10,8,3,22,5,,0.00,2,,143
2013-3-26,71,54,37,39,26,12,66,38,10,30.43,30.18,29.78,8,6,4,16,5,,0.00,3,,85
2013-3-27,73,56,39,39,33,18,87,51,14,30.49,30.24,29.84,10,7,2,17,3,,0.00,5,,199
2013-3-28,71,55,39,45,37,30,93,54,22,30.49,30.25,29.83,8,6,3,14,4,,1.05,5,Rain-Thunderstorm,179
2013-3-29,77,58,39,43,34,14,87,49,9,30.50,30.24,29.75,7,6,3,16,3,,0.00,3,,204
2013-3-30,84,62,39,39,31,10,87,43,7,30.46,30.20,29.70,10,8,6,15,3,,0.00,2,,298
2013-3-31,77,60,42,46,37,19,82,53,12,30.44,30.18,29.68,7,6,3,22,4,,0.15,3,Rain,145